User: anonymous   Login
Location: Unspecified
(0.0000°N, 0.0000°E)
Time: 07:22:02
(UTC+00:00)
Language:

Optus B3 - Orbit

View from above orbital plane
View from above orbital plane
View from above satellite
View from above satellite

Ground track
Ground track

The orbit data is extracted from the following two-line orbital elements,

1 23227U 94055A   17230.62125281 -.00000028  00000-0  00000+0 0  9999
2 23227   7.4894  49.8659 0003498 263.7959 142.1385  0.98694369 84073
Epoch (UTC): 18 August 2017 14:54:36
Eccentricity: 0.0003498
inclination: 7.4894°
perigee height: 36219 km
apogee height: 36249 km
right ascension of ascending node: 49.8659°
argument of perigee: 263.7959°
revolutions per day: 0.98694369
mean anomaly at epoch: 142.1385°
orbit number at epoch: 8407

The dashed part of the orbit path shows where the satellite is in the earth's shadow,  

DLR